Weather History for Fulton, NY

Change the Weather History Date:

Saturday, July 27, 2013

  Actual Average (KSYR) Record (KSYR)
Temperature  
Mean Temperature 67 °F 72 °F  
Max Temperature 82 °F 82 °F 95 °F (1941)
Min Temperature 53 °F 61 °F 50 °F (1977)
Degree Days  
Heating Degree Days 0 0  
Month to date heating degree days 2  
Since 1 June heating degree days 63  
Since 1 July heating degree days 2  
Cooling Degree Days 2 7  
Month to date cooling degree days 181  
Year to date cooling degree days 324  
Since 1 June cooling degree days 294  
Growing Degree Days 17 (Base 50)    
Moisture  
Dew Point 61 °F    
Average Humidity 80    
Maximum Humidity 94    
Minimum Humidity 47    
Precipitation  
Precipitation 0.32 in 0.12 in 2.60 in (2004)
Month to date precipitation 3.30  
Year to date precipitation 20.54  
Snow  
Snow 0.00 in 0.00 in 0.00 in (2002)
Month to date snowfall 0.0  
Since 1 June snowfall 0.0  
Since 1 July snowfall 0.0  
Snow Depth -    
Sea Level Pressure  
Sea Level Pressure 29.94 in    
Wind  
Wind Speed 3 mph (SE)    
Max Wind Speed 14 mph    
Max Gust Speed 20 mph    
Visibility 8 miles    
Events Rain , Thunderstorm    
T = Trace of Precipitation, MM = Missing Value Source: NWS Daily Summary

Daily Weather History Graph

Daily Weather History Graph

Search for Another Location

Airport:

Trip Planner

Search our weather history database for the weather conditions in past years. The results will help you decide how hot, cold, wet, or windy it might be!

Date:

Astronomy

Jul. 27, 2013 Rise Set
Actual Time 5:50 AM EDT 8:32 PM EDT
Civil Twilight 5:17 AM EDT 9:05 PM EDT
Nautical Twilight 4:35 AM EDT 9:47 PM EDT
Astronomical Twilight 3:47 AM EDT 10:34 PM EDT
Moon 11:06 PM EDT (7/27) 11:40 AM EDT (7/27)
Length of Visible Light 15h 48m
Length of Day
14h 42m
Waning Gibbous, 71% of the Moon is Illuminated
Jul 27
Waning Gibbous
Jul 29
Last Quarter
Aug 6
New
Aug 14
First Quarter
Aug 20
Full

Hourly Weather History & Observations

Time (EDT) Temp. Heat Index Dew Point Humidity Pressure Visibility Wind Dir Wind Speed Gust Speed Precip Events Conditions
12:54 AM 53.1 °F - 51.1 °F 93% 30.02 in 10.0 mi Calm Calm - N/A   Clear
1:54 AM 54.0 °F - 51.1 °F 90% 30.02 in 10.0 mi ESE 3.5 mph - N/A   Clear
2:54 AM 55.9 °F - 53.1 °F 90% 30.00 in 10.0 mi ESE 3.5 mph - N/A   Clear
3:54 AM 55.9 °F - 53.1 °F 90% 29.98 in 10.0 mi ESE 3.5 mph - N/A   Clear
4:54 AM 57.0 °F - 54.0 °F 89% 29.98 in 10.0 mi Calm Calm - N/A   Clear
5:54 AM 57.9 °F - 55.0 °F 90% 29.98 in 10.0 mi SE 3.5 mph - N/A   Clear
6:54 AM 60.1 °F - 57.0 °F 90% 29.99 in 10.0 mi Calm Calm - N/A   Clear
7:54 AM 64.9 °F - 59.0 °F 81% 29.98 in 10.0 mi Variable 4.6 mph - N/A   Clear
8:54 AM 70.0 °F - 61.0 °F 73% 29.98 in 10.0 mi ESE 4.6 mph - N/A   Clear
9:54 AM 73.0 °F - 59.0 °F 61% 29.98 in 10.0 mi South 5.8 mph - N/A   Clear
10:54 AM 73.9 °F - 61.0 °F 64% 29.98 in 10.0 mi Variable 3.5 mph - N/A   Clear
11:54 AM 77.0 °F - 61.0 °F 58% 29.97 in 10.0 mi SSE 5.8 mph - N/A   Clear
12:54 PM 81.0 °F 81.9 °F 62.1 °F 52% 29.95 in 10.0 mi Variable 5.8 mph - N/A   Clear
1:54 PM 81.0 °F 81.3 °F 59.0 °F 47% 29.93 in 10.0 mi SE 5.8 mph - N/A   Clear
2:54 PM 80.1 °F 80.9 °F 60.1 °F 50% 29.92 in 10.0 mi Variable 5.8 mph - N/A   Partly Cloudy
3:54 PM 80.1 °F 81.2 °F 62.1 °F 54% 29.91 in 10.0 mi Variable 4.6 mph - N/A   Partly Cloudy
4:39 PM 75.2 °F - 64.4 °F 69% 29.91 in 7.0 mi Variable 3.5 mph - 0.01 in Rain , Thunderstorm Light Rain
4:54 PM 71.1 °F - 64.9 °F 81% 29.91 in 1.8 mi SE 3.5 mph - 0.08 in Rain , Thunderstorm Heavy Thunderstorms and Rain
5:01 PM 69.8 °F - 66.2 °F 88% 29.92 in 3.0 mi South 13.8 mph 19.6 mph 0.01 in Rain , Thunderstorm Light Thunderstorms and Rain
5:07 PM 69.8 °F - 64.4 °F 83% 29.92 in 1.8 mi South 13.8 mph 19.6 mph 0.08 in Rain , Thunderstorm Heavy Thunderstorms and Rain
5:19 PM 66.2 °F - 64.4 °F 94% 29.89 in 3.0 mi ESE 4.6 mph - 0.12 in Rain , Thunderstorm Thunderstorms and Rain
5:52 PM 66.2 °F - 64.4 °F 94% 29.89 in 10.0 mi East 3.5 mph - 0.13 in Rain Light Rain
5:54 PM 66.9 °F - 64.0 °F 90% 29.89 in 10.0 mi Calm Calm - 0.13 in Rain Light Rain
6:54 PM 69.1 °F - 66.0 °F 90% 29.89 in 10.0 mi Calm Calm - 0.00 in Rain Light Rain
7:54 PM 68.0 °F - 66.0 °F 93% 29.90 in 8.0 mi Calm Calm - 0.01 in Rain Light Rain
8:54 PM 66.9 °F - 64.0 °F 90% 29.88 in 9.0 mi East 3.5 mph - 0.00 in Rain Light Rain
9:54 PM 66.9 °F - 64.9 °F 93% 29.90 in 5.0 mi Variable 4.6 mph - 0.03 in Rain Rain
10:54 PM 68.0 °F - 66.0 °F 93% 29.89 in 7.0 mi Calm Calm - 0.03 in Rain Light Rain
11:54 PM 68.0 °F - 66.0 °F 93% 29.88 in 5.0 mi Variable 6.9 mph - 0.04 in Rain Rain